AAL127 KPWM-KBTV

Flight info

Callsign AAL127
Flight time 0h 32m
Altitude 22000
Route HSKEL3 HSKEL GRNMT BTV
Aircraft A320/M-SDE3FGHIRWY/LB1

Departure

Time 2026-05-08 02:27
Airport Portland International Jetport (KPWM)

Arrival

Time 2026-05-08 03:00
Airport Patrick Leahy Burlington International Airport (KBTV)
Time Latitude Longitude Altitude Speed Heading
2026-05-08 01:58 43.64676 -70.31172 63 ft 0 kts 22°
2026-05-08 02:17 43.64675 -70.31172 57 ft 2 kts 22°
2026-05-08 02:18 43.64660 -70.31181 61 ft 2 kts 22°
2026-05-08 02:18 43.64644 -70.31190 57 ft 2 kts 22°
2026-05-08 02:18 43.64628 -70.31199 56 ft 2 kts 22°
2026-05-08 02:18 43.64612 -70.31207 60 ft 2 kts 24°
2026-05-08 02:19 43.64601 -70.31219 60 ft 0 kts 85°
2026-05-08 02:22 43.64600 -70.31150 57 ft 15 kts 94°
2026-05-08 02:22 43.64588 -70.30961 58 ft 22 kts 95°
2026-05-08 02:22 43.64580 -70.30814 59 ft 24 kts 94°
2026-05-08 02:22 43.64557 -70.30514 57 ft 17 kts 96°
2026-05-08 02:23 43.64555 -70.30489 60 ft 0 kts 96°
2026-05-08 02:23 43.64553 -70.30460 59 ft 11 kts 96°
2026-05-08 02:23 43.64537 -70.30210 56 ft 25 kts 95°
2026-05-08 02:23 43.64526 -70.30062 55 ft 19 kts 95°
2026-05-08 02:24 43.64522 -70.29991 53 ft 0 kts 95°
2026-05-08 02:24 43.64521 -70.29983 52 ft 2 kts 96°
2026-05-08 02:25 43.64507 -70.29931 49 ft 9 kts 129°
2026-05-08 02:25 43.64494 -70.29920 49 ft 0 kts 155°
2026-05-08 02:25 43.64477 -70.29915 47 ft 8 kts 171°
2026-05-08 02:25 43.64411 -70.29972 47 ft 10 kts 264°
2026-05-08 02:26 43.64411 -70.29993 48 ft 0 kts 272°
2026-05-08 02:26 43.64415 -70.30045 50 ft 19 kts 275°
2026-05-08 02:27 43.64456 -70.30612 59 ft 95 kts 275°
2026-05-08 02:27 43.64539 -70.31793 100 ft 147 kts 276°
2026-05-08 02:27 43.64625 -70.33205 673 ft 148 kts 277°
2026-05-08 02:27 43.64717 -70.34645 1325 ft 151 kts 279°
2026-05-08 02:28 43.64819 -70.36085 2051 ft 153 kts 279°
2026-05-08 02:28 43.64932 -70.37645 2440 ft 174 kts 278°
2026-05-08 02:28 43.65060 -70.39419 2786 ft 198 kts 278°
2026-05-08 02:28 43.65203 -70.41435 3210 ft 223 kts 277°
2026-05-08 02:29 43.65360 -70.43663 3801 ft 241 kts 277°
2026-05-08 02:29 43.65519 -70.45994 4753 ft 245 kts 276°
2026-05-08 02:29 43.65756 -70.48339 5749 ft 248 kts 284°
2026-05-08 02:29 43.66222 -70.50635 6719 ft 250 kts 285°
2026-05-08 02:30 43.66699 -70.52960 7642 ft 253 kts 285°
2026-05-08 02:30 43.67183 -70.55317 8562 ft 257 kts 285°
2026-05-08 02:30 43.67674 -70.57706 9475 ft 261 kts 285°
2026-05-08 02:30 43.68166 -70.60103 10274 ft 267 kts 285°
2026-05-08 02:31 43.68687 -70.62678 10613 ft 290 kts 284°
2026-05-08 02:31 43.69247 -70.65457 10990 ft 308 kts 284°
2026-05-08 02:31 43.69826 -70.68327 11758 ft 312 kts 284°
2026-05-08 02:31 43.70413 -70.71235 12598 ft 315 kts 283°
2026-05-08 02:32 43.71002 -70.74157 13409 ft 318 kts 283°
2026-05-08 02:32 43.71580 -70.77116 14160 ft 319 kts 279°
2026-05-08 02:32 43.71794 -70.80166 14870 ft 319 kts 266°
2026-05-08 02:32 43.71495 -70.83191 15596 ft 319 kts 254°
2026-05-08 02:33 43.70745 -70.86077 16351 ft 320 kts 248°
2026-05-08 02:33 43.69913 -70.88939 17113 ft 321 kts 248°
2026-05-08 02:33 43.69082 -70.91804 17872 ft 322 kts 247°
2026-05-08 02:33 43.68251 -70.94680 18545 ft 323 kts 247°
2026-05-08 02:34 43.67420 -70.97565 19208 ft 324 kts 247°
2026-05-08 02:34 43.66587 -71.00459 19876 ft 325 kts 247°
2026-05-08 02:34 43.65967 -71.03469 20524 ft 329 kts 257°
2026-05-08 02:34 43.65849 -71.06661 21171 ft 337 kts 268°
2026-05-08 02:35 43.66257 -71.09901 21696 ft 347 kts 276°
2026-05-08 02:35 43.66843 -71.13128 21815 ft 347 kts 276°
2026-05-08 02:35 43.67434 -71.16381 21844 ft 350 kts 276°
2026-05-08 02:35 43.68025 -71.19645 21842 ft 350 kts 276°
2026-05-08 02:36 43.68607 -71.22871 21845 ft 350 kts 276°
2026-05-08 02:36 43.69195 -71.26132 21843 ft 350 kts 276°
2026-05-08 02:36 43.69781 -71.29407 21843 ft 350 kts 276°
2026-05-08 02:36 43.70361 -71.32673 21843 ft 350 kts 276°
2026-05-08 02:37 43.70940 -71.35939 21840 ft 350 kts 276°
2026-05-08 02:37 43.71518 -71.39213 21841 ft 350 kts 276°
2026-05-08 02:37 43.72095 -71.42492 21874 ft 350 kts 276°
2026-05-08 02:37 43.72672 -71.45762 21868 ft 350 kts 276°
2026-05-08 02:38 43.73247 -71.49034 21853 ft 350 kts 276°
2026-05-08 02:38 43.73821 -71.52307 21851 ft 350 kts 276°
2026-05-08 02:38 43.74393 -71.55573 21859 ft 350 kts 276°
2026-05-08 02:38 43.74967 -71.58848 21857 ft 350 kts 276°
2026-05-08 02:39 43.75541 -71.62122 21855 ft 350 kts 276°
2026-05-08 02:39 43.76112 -71.65401 21850 ft 350 kts 276°
2026-05-08 02:39 43.76681 -71.68679 21854 ft 350 kts 276°
2026-05-08 02:39 43.77249 -71.71953 21840 ft 350 kts 276°
2026-05-08 02:40 43.77816 -71.75230 21849 ft 350 kts 276°
2026-05-08 02:40 43.78376 -71.78464 21881 ft 350 kts 276°
2026-05-08 02:40 43.78943 -71.81742 21873 ft 350 kts 276°
2026-05-08 02:40 43.79510 -71.85022 21867 ft 350 kts 276°
2026-05-08 02:41 43.80079 -71.88300 21862 ft 350 kts 276°
2026-05-08 02:41 43.80644 -71.91583 21858 ft 351 kts 276°
2026-05-08 02:41 43.81209 -71.94862 21856 ft 351 kts 276°
2026-05-08 02:41 43.81772 -71.98148 21859 ft 351 kts 276°
2026-05-08 02:42 43.82334 -72.01439 21860 ft 351 kts 276°
2026-05-08 02:42 43.82895 -72.04728 21863 ft 351 kts 276°
2026-05-08 02:42 43.83457 -72.08028 21863 ft 351 kts 276°
2026-05-08 02:42 43.84017 -72.11323 21898 ft 351 kts 276°
2026-05-08 02:43 43.84574 -72.14618 21895 ft 351 kts 276°
2026-05-08 02:43 43.85129 -72.17871 21680 ft 343 kts 276°
2026-05-08 02:43 43.85675 -72.21056 21412 ft 337 kts 276°
2026-05-08 02:43 43.86209 -72.24182 21132 ft 330 kts 277°
2026-05-08 02:44 43.86727 -72.27253 20746 ft 324 kts 277°
2026-05-08 02:44 43.87233 -72.30271 20349 ft 319 kts 277°
2026-05-08 02:44 43.87729 -72.33242 19948 ft 315 kts 277°
2026-05-08 02:44 43.88212 -72.36143 19547 ft 311 kts 277°
2026-05-08 02:45 43.88696 -72.39052 19166 ft 308 kts 278°
2026-05-08 02:45 43.89175 -72.41931 18743 ft 305 kts 278°
2026-05-08 02:45 43.89650 -72.44789 18340 ft 303 kts 278°
2026-05-08 02:45 43.90122 -72.47624 18023 ft 302 kts 279°
2026-05-08 02:46 43.90594 -72.50452 17613 ft 301 kts 279°
2026-05-08 02:46 43.91063 -72.53279 17213 ft 299 kts 279°
2026-05-08 02:46 43.91526 -72.56090 16810 ft 298 kts 279°
2026-05-08 02:46 43.91987 -72.58885 16412 ft 297 kts 279°
2026-05-08 02:47 43.92445 -72.61666 16013 ft 295 kts 280°
2026-05-08 02:47 43.92900 -72.64435 15613 ft 294 kts 280°
2026-05-08 02:47 43.93354 -72.67189 15225 ft 292 kts 280°
2026-05-08 02:47 43.93806 -72.69930 14840 ft 291 kts 280°
2026-05-08 02:48 43.94254 -72.72656 14439 ft 290 kts 280°
2026-05-08 02:48 43.94699 -72.75379 14034 ft 289 kts 281°
2026-05-08 02:48 43.95142 -72.78095 13638 ft 288 kts 281°
2026-05-08 02:48 43.95582 -72.80803 13209 ft 287 kts 281°
2026-05-08 02:49 43.96022 -72.83502 12796 ft 286 kts 281°
2026-05-08 02:49 43.96459 -72.86181 12393 ft 283 kts 281°
2026-05-08 02:49 43.96891 -72.88834 11987 ft 281 kts 281°
2026-05-08 02:49 43.97321 -72.91471 11583 ft 279 kts 283°
2026-05-08 02:50 43.98100 -72.93930 11116 ft 282 kts 303°
2026-05-08 02:50 43.99537 -72.95816 10632 ft 291 kts 324°
2026-05-08 02:50 44.01448 -72.96758 10352 ft 295 kts 348°
2026-05-08 02:50 44.03486 -72.96653 10223 ft 291 kts
2026-05-08 02:51 44.05450 -72.96310 9960 ft 285 kts
2026-05-08 02:51 44.07398 -72.95965 9827 ft 281 kts
2026-05-08 02:51 44.09338 -72.95623 9661 ft 281 kts
2026-05-08 02:51 44.11307 -72.95278 9055 ft 287 kts
2026-05-08 02:52 44.13259 -72.94931 8642 ft 280 kts
2026-05-08 02:52 44.15185 -72.94591 8132 ft 278 kts
2026-05-08 02:52 44.17092 -72.94256 7628 ft 275 kts
2026-05-08 02:52 44.18982 -72.93924 7159 ft 272 kts
2026-05-08 02:53 44.20851 -72.93595 6608 ft 271 kts
2026-05-08 02:53 44.22763 -72.93264 5844 ft 283 kts
2026-05-08 02:53 44.24729 -72.92923 5372 ft 282 kts
2026-05-08 02:53 44.26639 -72.92582 5208 ft 271 kts
2026-05-08 02:54 44.28462 -72.92253 5083 ft 258 kts
2026-05-08 02:54 44.30203 -72.91938 4959 ft 246 kts
2026-05-08 02:54 44.31840 -72.91949 4850 ft 228 kts 342°
2026-05-08 02:54 44.33192 -72.92808 4756 ft 210 kts 320°
2026-05-08 02:55 44.34169 -72.94220 4708 ft 197 kts 308°
2026-05-08 02:55 44.35876 -72.96963 4702 ft 180 kts 309°
2026-05-08 02:55 44.36697 -72.98270 4651 ft 177 kts 309°
2026-05-08 02:56 44.37487 -72.99535 4529 ft 167 kts 309°
2026-05-08 02:56 44.38228 -73.00724 4368 ft 157 kts 310°
2026-05-08 02:56 44.38917 -73.01830 4244 ft 146 kts 309°
2026-05-08 02:56 44.39570 -73.02880 4073 ft 141 kts 309°
2026-05-08 02:57 44.40238 -73.03956 3753 ft 145 kts 309°
2026-05-08 02:57 44.40882 -73.05008 3527 ft 144 kts 308°
2026-05-08 02:57 44.41518 -73.06122 3090 ft 148 kts 307°
2026-05-08 02:57 44.42164 -73.07228 2663 ft 145 kts 308°
2026-05-08 02:58 44.42847 -73.08282 2155 ft 147 kts 311°
2026-05-08 02:58 44.43544 -73.09325 1672 ft 148 kts 309°
2026-05-08 02:58 44.44210 -73.10421 1233 ft 147 kts 308°
2026-05-08 02:58 44.44873 -73.11493 942 ft 140 kts 312°
2026-05-08 02:59 44.45524 -73.12491 754 ft 137 kts 309°
2026-05-08 02:59 44.46145 -73.13499 556 ft 136 kts 312°
2026-05-08 02:59 44.46769 -73.14498 369 ft 135 kts 310°
2026-05-08 02:59 44.47313 -73.15368 333 ft 97 kts 311°
2026-05-08 03:00 44.47642 -73.15896 328 ft 47 kts 310°
2026-05-08 03:00 44.47837 -73.16211 331 ft 41 kts 311°
2026-05-08 03:00 44.47935 -73.16478 324 ft 17 kts 220°
2026-05-08 03:00 44.47860 -73.16556 326 ft 8 kts 208°
2026-05-08 03:01 44.47857 -73.16557 326 ft 0 kts 200°
2026-05-08 03:01 44.47841 -73.16556 327 ft 9 kts 167°
2026-05-08 03:02 44.47759 -73.16435 326 ft 23 kts 130°
2026-05-08 03:02 44.47630 -73.16228 325 ft 33 kts 130°
2026-05-08 03:02 44.47466 -73.15963 329 ft 37 kts 131°
2026-05-08 03:02 44.47297 -73.15695 330 ft 36 kts 131°
2026-05-08 03:03 44.47152 -73.15469 332 ft 21 kts 133°
2026-05-08 03:03 44.47080 -73.15449 335 ft 0 kts 205°